Kelly, NC

2:33 AM EST on January 19, 2017 (GMT -0500)
Elizabethtown

Weather History for KEYF - September, 2013

Change the Weather History Date:

Thursday, September 19, 2013

  Actual Average (KILM) Record (KILM)
Temperature  
Mean Temperature 67 °F -  
Max Temperature 80 °F 84 °F 95 °F (1970)
Min Temperature 54 °F 66 °F 50 °F (1889)
Cooling Degree Days 2    
Growing Degree Days 17 (Base 50)    
Moisture  
Dew Point 55 °F    
Average Humidity 70    
Maximum Humidity 99    
Minimum Humidity 38    
Precipitation  
Precipitation 0.00 in - - ()
Sea Level Pressure  
Sea Level Pressure 30.15 in    
Wind  
Wind Speed 1 mph (East)    
Max Wind Speed 6 mph    
Max Gust Speed -    
Visibility 10 miles    
Events      
Averages and records for this station are not official NWS values.
T = Trace of Precipitation, MM = Missing Value Source: NWS Daily Summary

Daily Weather History Graph

Daily Weather History Graph

Search for Another Location

Airport or City:

Trip Planner

Search our weather history database for the weather conditions in past years. The results will help you decide how hot, cold, wet, or windy it might be!

Date:

Astronomy

Sep. 19, 2013 Rise Set
Actual Time 6:59 AM EDT 7:14 PM EDT
Civil Twilight 6:34 AM EDT 7:39 PM EDT
Nautical Twilight 6:04 AM EDT 8:08 PM EDT
Astronomical Twilight 5:34 AM EDT 8:38 PM EDT
Moon 7:14 PM EDT 7:04 AM EDT
Length of Visible Light 13h 05m
Length of Day
12h 14m
Full, 100% of the Moon is Illuminated
Sep 19
Full
Sep 26
Last Quarter
Oct 4
New
Oct 11
First Quarter
Oct 18
Full

Hourly Weather History & Observations

Time (EDT) Temp. Heat Index Dew Point Humidity Pressure Visibility Wind Dir Wind Speed Gust Speed Precip Events Conditions
12:15 AM 59.5 °F - 54.0 °F 82% 30.19 in 10.0 mi Calm Calm - N/A   Clear
12:35 AM 59.0 °F - 53.8 °F 83% 30.19 in 10.0 mi Calm Calm - N/A   Clear
12:55 AM 59.2 °F - 54.0 °F 83% 30.19 in 10.0 mi Calm Calm - N/A   Clear
1:15 AM 58.8 °F - 54.1 °F 84% 30.19 in 10.0 mi Calm Calm - N/A   Clear
1:35 AM 58.1 °F - 54.5 °F 88% 30.18 in 10.0 mi Calm Calm - N/A   Clear
1:55 AM 57.9 °F - 54.5 °F 88% 30.18 in 10.0 mi Calm Calm - N/A   Clear
2:15 AM 57.4 °F - 54.5 °F 90% 30.18 in 10.0 mi Calm Calm - N/A   Clear
2:35 AM 56.7 °F - 54.5 °F 92% 30.18 in 10.0 mi Calm Calm - N/A   Clear
2:55 AM 56.5 °F - 54.5 °F 93% 30.17 in 10.0 mi Calm Calm - N/A   Clear
3:15 AM 56.5 °F - 54.7 °F 94% 30.16 in 10.0 mi Calm Calm - N/A   Clear
3:35 AM 56.1 °F - 54.5 °F 94% 30.16 in 10.0 mi Calm Calm - N/A   Clear
3:55 AM 55.6 °F - 54.1 °F 95% 30.16 in 10.0 mi Calm Calm - N/A   Clear
4:15 AM 55.6 °F - 54.5 °F 96% 30.15 in 10.0 mi Calm Calm - N/A   Clear
4:35 AM 55.6 °F - 54.7 °F 97% 30.16 in 10.0 mi Calm Calm - N/A   Clear
4:55 AM 54.9 °F - 54.0 °F 97% 30.16 in 10.0 mi Calm Calm - N/A   Clear
5:15 AM 54.7 °F - 53.8 °F 97% 30.16 in 10.0 mi Calm Calm - N/A   Clear
5:35 AM 54.7 °F - 54.0 °F 97% 30.16 in 10.0 mi Calm Calm - N/A   Clear
5:55 AM 54.0 °F - 53.6 °F 99% 30.17 in 10.0 mi Calm Calm - N/A   Clear
6:15 AM 54.5 °F - 54.0 °F 98% 30.17 in 10.0 mi Calm Calm - N/A   Clear
6:35 AM 54.5 °F - 54.1 °F 99% 30.17 in 10.0 mi Calm Calm - N/A   Clear
6:55 AM 54.5 °F - 54.0 °F 98% 30.18 in 10.0 mi Calm Calm - N/A   Clear
7:15 AM 54.1 °F - 53.8 °F 99% 30.18 in 7.0 mi Calm Calm - N/A   Clear
7:35 AM 54.1 °F - 54.0 °F 99% 30.19 in 7.0 mi Calm Calm - N/A   Clear
7:55 AM 54.5 °F - 54.1 °F 99% 30.19 in 10.0 mi Calm Calm - N/A   Clear
8:15 AM 56.1 °F - 55.6 °F 98% 30.19 in 10.0 mi Calm Calm - N/A   Clear
8:35 AM 58.5 °F - 56.7 °F 94% 30.19 in 10.0 mi Calm Calm - N/A   Clear
8:55 AM 61.0 °F - 56.5 °F 85% 30.19 in 10.0 mi East 4.6 mph - N/A   Scattered Clouds
9:15 AM 62.8 °F - 57.2 °F 82% 30.19 in 10.0 mi East 5.8 mph - N/A   Scattered Clouds
9:35 AM 65.8 °F - 57.6 °F 75% 30.19 in 10.0 mi East 5.8 mph - N/A   Clear
9:55 AM 68.0 °F - 57.4 °F 69% 30.19 in 10.0 mi ESE 4.6 mph - N/A   Clear
10:15 AM 69.8 °F - 57.6 °F 65% 30.19 in 10.0 mi East 3.5 mph - N/A   Scattered Clouds
10:35 AM 71.2 °F - 56.5 °F 60% 30.19 in 10.0 mi Calm Calm - N/A   Mostly Cloudy
10:55 AM 71.4 °F - 55.6 °F 57% 30.19 in 10.0 mi Calm Calm - N/A   Mostly Cloudy
11:15 AM 73.4 °F - 55.0 °F 52% 30.19 in 10.0 mi Calm Calm - N/A   Scattered Clouds
11:35 AM 74.1 °F - 54.3 °F 50% 30.19 in 10.0 mi North 3.5 mph - N/A   Clear
11:55 AM 74.8 °F - 53.2 °F 47% 30.19 in 10.0 mi East 3.5 mph - N/A   Clear
12:15 PM 75.4 °F - 52.7 °F 45% 30.18 in 10.0 mi NE 3.5 mph - N/A   Clear
12:35 PM 75.6 °F - 50.9 °F 42% 30.18 in 10.0 mi Calm Calm - N/A   Clear
12:55 PM 76.3 °F - 52.2 °F 43% 30.17 in 10.0 mi NNE 3.5 mph - N/A   Clear
1:15 PM 77.5 °F - 50.7 °F 39% 30.17 in 10.0 mi Calm Calm - N/A   Clear
1:35 PM 77.7 °F - 52.3 °F 41% 30.15 in 10.0 mi East 3.5 mph - N/A   Clear
1:55 PM 77.9 °F - 51.8 °F 40% 30.14 in 10.0 mi ESE 4.6 mph - N/A   Clear
2:15 PM 78.3 °F - 52.0 °F 40% 30.14 in 10.0 mi Calm Calm - N/A   Clear
2:35 PM 79.0 °F - 52.0 °F 39% 30.13 in 10.0 mi ENE 3.5 mph - N/A   Clear
2:55 PM 79.0 °F - 52.2 °F 39% 30.12 in 10.0 mi Calm Calm - N/A   Clear
3:15 PM 79.3 °F - 52.3 °F 39% 30.11 in 10.0 mi Calm Calm - N/A   Clear
3:35 PM 80.1 °F - 52.9 °F 39% 30.11 in 10.0 mi ESE 5.8 mph - N/A   Clear
3:55 PM 80.1 °F - 52.5 °F 38% 30.10 in 10.0 mi Calm Calm - N/A   Clear
4:15 PM 79.5 °F - 52.7 °F 39% 30.10 in 10.0 mi Calm Calm - N/A   Clear
4:35 PM 80.2 °F 80.1 °F 54.1 °F 40% 30.10 in 10.0 mi Calm Calm - N/A   Clear
4:55 PM 79.9 °F - 54.3 °F 41% 30.10 in 10.0 mi Calm Calm - N/A   Clear
5:15 PM 79.9 °F - 54.7 °F 42% 30.10 in 10.0 mi Calm Calm - N/A   Clear
5:35 PM 79.9 °F - 55.2 °F 43% 30.10 in 10.0 mi Calm Calm - N/A   Clear
5:55 PM 79.5 °F - 55.9 °F 44% 30.10 in 10.0 mi Calm Calm - N/A   Clear
6:15 PM 78.4 °F - 56.8 °F 47% 30.10 in 10.0 mi Calm Calm - N/A   Scattered Clouds
6:35 PM 77.2 °F - 58.1 °F 52% 30.10 in 10.0 mi Calm Calm - N/A   Clear
6:55 PM 75.0 °F - 59.2 °F 58% 30.10 in 10.0 mi Calm Calm - N/A   Clear
7:15 PM 72.9 °F - 59.7 °F 63% 30.10 in 10.0 mi Calm Calm - N/A   Clear
7:35 PM 71.1 °F - 58.6 °F 65% 30.10 in 10.0 mi Calm Calm - N/A   Clear
7:55 PM 69.8 °F - 58.6 °F 68% 30.10 in 10.0 mi Calm Calm - N/A   Clear
8:15 PM 69.6 °F - 58.6 °F 68% 30.11 in 10.0 mi Calm Calm - N/A   Clear
8:35 PM 68.5 °F - 58.8 °F 71% 30.11 in 10.0 mi Calm Calm - N/A   Clear
8:55 PM 68.0 °F - 59.9 °F 75% 30.12 in 10.0 mi Calm Calm - N/A   Clear
9:15 PM 68.0 °F - 58.1 °F 71% 30.12 in 10.0 mi Calm Calm - N/A   Clear
9:35 PM 68.0 °F - 59.2 °F 73% 30.11 in 10.0 mi Calm Calm - N/A   Mostly Cloudy
9:55 PM 68.2 °F - 59.2 °F 73% 30.11 in 10.0 mi Calm Calm - N/A   Overcast
10:15 PM 68.2 °F - 59.5 °F 74% 30.11 in 10.0 mi Calm Calm - N/A   Overcast
10:35 PM 68.2 °F - 58.5 °F 71% 30.10 in 10.0 mi Calm Calm - N/A   Overcast
10:55 PM 66.9 °F - 59.4 °F 77% 30.10 in 10.0 mi Calm Calm - N/A   Scattered Clouds
11:15 PM 66.4 °F - 58.6 °F 76% 30.10 in 10.0 mi SSE 3.5 mph - N/A   Scattered Clouds
11:35 PM 66.2 °F - 58.1 °F 75% 30.10 in 10.0 mi Calm Calm - N/A   Clear
11:55 PM 66.2 °F - 58.8 °F 77% 30.10 in 10.0 mi Calm Calm - N/A   Clear